Location: Anglesey
(53.1800°N, 4.2200°W)
Time: 12:38:52
(UTC+00:00)

N. Korean satellite - Pass Details

Date: 12 October 2017
Orbit: 461 x 513 km, 97.2° (Epoch: 17 December)

Event Time Altitude Azimuth Distance (km) Brightness Sun altitude
Rises 18:56:47 0° 160° (SSE) 2,548 10.1 -5.2°
Reaches altitude 10° 18:58:52 10° 159° (SSE) 1,663 9.1 -5.5°
Maximum altitude 19:02:25 74° 74° (ENE) 504 6.5 -6.0°
Drops below altitude 10° 19:05:57 10° 350° (N) 1,649 9.3 -6.5°
Sets 19:08:00 0° 348° (NNW) 2,525 10.3 -6.8°
